Wind_Speed
15 14 14 14 16 18 24 26 29 28 29 30 29 26 21 22 26 32 31 25 23 24 27 30 27 23 21 17 19 21 19 21
16 14 13 14 17 19 26 28 30 29 30 27 25 22 21 26 32 28 28 25 26 29 30 30 25 23 17 18 26 22 23 20
15 15 16 17 17 23 26 29 30 29 28 24 23 24 27 34 32 28 27 31 31 31 32 30 26 22 24 24 22 24 22 17
15 16 18 20 21 25 27 29 30 28 27 27 27 24 27 26 27 29 29 31 31 31 31 29 26 22 23 20 21 24 21 17
17 18 18 20 23 27 30 32 31 30 30 32 23 22 31 27 31 29 30 31 32 30 29 27 20 17 16 18 24 24 20 19
20 20 21 21 27 29 33 35 34 35 36 31 25 23 34 30 29 29 32 32 30 29 30 25 21 16 17 24 23 22 18 19
26 24 25 23 30 31 35 37 35 37 38 31 27 24 25 28 28 28 28 26 29 27 29 22 21 18 21 21 22 19 17 19
31 25 28 27 28 34 36 38 36 39 40 37 30 29 28 29 31 29 29 28 27 26 23 20 20 22 21 20 21 22 19 18
33 30 26 29 29 35 37 37 38 42 42 37 35 32 32 32 32 31 29 29 28 25 23 19 25 22 24 22 23 18 16 16
33 29 28 30 29 34 34 37 38 43 39 40 39 34 33 35 31 30 29 29 28 23 26 28 24 24 24 23 21 18 16 15
35 31 33 28 32 30 34 37 38 41 44 39 40 37 37 30 33 35 35 23 26 26 28 28 26 26 22 23 20 16 16 14
36 32 31 35 28 29 31 37 38 42 43 40 32 34 37 33 28 33 34 27 29 28 31 26 29 24 22 21 17 13 13 12
37 36 31 34 29 29 29 31 35 34 37 48 38 30 33 35 37 38 35 30 33 28 34 33 26 29 27 17 14 13 11 10
37 36 33 35 27 28 29 27 29 29 38 48 46 37 27 30 22 35 31 35 32 31 35 28 24 32 12 11 2 3 11 13
36 36 35 33 29 28 27 29 29 28 33 39 46 50 42 24 22 28 29 21 30 34 36 31 23 28 24 9 3 3 7 13
36 37 37 33 28 30 31 31 28 29 33 35 45 51 47 34 28 31 31 24 31 33 35 34 26 26 24 21 5 13 4 3
38 39 39 36 35 31 25 23 30 33 33 36 39 43 48 45 38 33 38 30 33 35 34 31 28 25 26 20 15 11 13 5
37 41 41 39 39 37 30 29 23 34 35 38 41 43 43 40 41 32 36 35 34 36 37 35 29 27 24 21 19 16 13 6
12 41 39 41 42 43 39 33 33 32 40 38 39 41 40 41 42 40 35 40 32 38 36 37 31 28 28 25 22 20 18 20
37 17 40 44 43 43 43 37 35 29 36 38 39 40 39 42 43 41 38 39 30 37 37 34 33 30 26 26 23 20 20 24
Wind_Direction
146 153 159 162 163 168 167 167 165 162 168 163 169 165 172 182 173 161 155 163 145 156 151 144 142 137 129 114 109 109 120 104
149 156 148 152 157 163 166 170 167 164 171 173 172 181 178 171 169 160 162 180 167 161 154 147 144 132 119 124 115 115 115 112
155 159 155 151 156 160 164 170 171 167 169 175 175 173 173 170 162 162 166 167 164 160 154 151 142 131 118 120 118 120 112 116
175 171 161 155 160 158 164 168 168 171 174 168 173 171 175 164 165 163 167 163 162 159 156 151 144 135 127 123 126 116 115 118
186 180 168 159 160 158 161 166 165 164 161 162 154 161 161 163 161 165 164 163 162 160 157 154 147 143 132 127 120 116 119 119
189 185 177 165 166 160 161 162 159 160 163 153 154 159 165 155 158 160 161 163 164 164 164 156 164 160 143 126 124 120 127 124
177 185 181 167 170 164 159 160 161 162 160 151 161 162 163 159 160 161 165 164 164 173 171 179 173 153 145 136 126 125 130 130
172 187 186 172 171 169 167 166 166 169 164 160 173 171 169 162 163 168 174 171 170 177 180 179 165 145 141 137 126 133 142 138
172 182 186 174 168 172 171 170 171 171 170 176 171 175 166 165 171 173 182 172 177 177 180 161 142 147 138 140 139 141 137 133
168 177 185 186 168 174 169 168 169 172 174 170 170 182 175 169 177 176 183 180 184 173 152 143 144 145 137 137 138 139 140 138
168 176 183 193 179 173 174 170 170 176 174 176 178 181 179 188 172 177 183 183 174 155 149 153 149 141 132 141 140 144 149 154
167 175 182 195 181 167 173 173 179 185 180 180 190 187 184 185 185 190 190 180 160 156 151 154 151 137 125 128 131 145 158 163
168 174 186 189 191 174 169 176 178 172 179 179 189 174 184 201 192 195 192 181 167 159 152 152 146 155 133 122 133 156 164 170
170 174 175 189 200 179 175 171 176 169 177 185 181 178 191 197 196 197 193 176 164 156 154 147 155 165 147 123 134 200 193 185
173 174 176 184 199 194 172 173 170 166 171 179 182 179 187 208 202 187 185 169 167 167 164 162 166 179 178 151 151 201 149 211
175 173 175 183 196 202 188 173 178 175 169 168 179 182 186 204 207 202 192 182 178 170 171 172 172 186 191 204 197 154 182 157
175 169 174 182 192 200 201 198 180 177 168 168 175 183 189 193 214 195 194 192 189 183 177 176 188 189 193 205 216 201 161 146
171 167 174 181 187 194 201 209 195 176 172 173 178 187 194 200 208 200 193 198 190 187 188 189 191 193 197 206 202 194 170 163
235 168 177 182 185 192 201 209 216 179 177 175 176 188 194 198 199 198 193 199 192 189 188 192 196 197 199 206 206 203 205 189
329 267 179 183 185 188 198 210 215 200 179 183 181 186 191 194 195 197 195 198 195 195 192 194 200 205 207 208 212 210 218 185
Height
738 742 745 749 752 757 760 765 770 774 780 786 791 795 799 802 807 810 815 822 823 826 829 831 834 836 839 840 842 844 848 851
741 743 745 749 752 756 760 766 771 776 780 784 790 795 799 803 806 810 815 821 823 825 829 832 836 839 841 842 845 846 850 853
741 744 746 749 752 756 761 767 772 777 782 786 792 797 801 803 806 811 817 821 824 827 830 834 837 840 842 844 845 848 851 855
742 744 746 748 752 756 761 767 773 776 782 785 792 797 801 805 810 814 818 821 826 829 831 835 838 841 843 846 847 850 854 856
741 743 745 747 751 755 760 766 772 776 781 787 792 797 801 807 811 815 819 822 827 830 833 836 839 842 844 847 849 852 855 858
738 742 743 746 750 754 758 764 769 772 781 787 790 799 802 806 810 815 819 823 826 829 833 836 840 844 846 848 850 852 856 860
731 738 741 744 748 754 757 762 768 774 780 785 789 798 802 805 808 814 819 822 826 829 832 836 840 843 846 848 851 854 857 860
724 734 738 741 746 751 757 761 766 772 779 784 786 796 800 804 807 813 817 821 824 827 832 836 840 842 846 849 852 856 858 860
718 728 735 739 743 750 754 759 764 769 777 783 786 791 798 802 807 811 815 819 821 826 829 834 838 842 846 850 853 856 858 861
713 724 732 737 740 747 753 758 763 768 772 781 784 790 795 799 804 807 811 815 819 824 827 831 837 842 846 850 854 856 859 861
707 717 727 735 737 743 750 756 761 767 772 780 788 789 792 796 800 804 809 814 818 822 826 828 837 843 847 851 854 857 860 862
701 712 723 731 735 739 747 753 759 763 766 779 789 791 792 797 800 803 806 813 816 821 822 830 837 842 846 851 854 858 860 862
694 706 717 726 731 735 742 747 755 759 758 768 781 786 793 797 800 803 804 809 814 816 820 827 837 839 843 851 854 858 861 863
688 700 711 722 727 731 737 744 750 755 763 770 777 780 787 794 796 798 802 804 807 814 819 828 835 837 841 848 857 861 860 861
683 694 706 718 725 728 735 743 749 754 760 767 770 775 781 788 794 794 797 801 805 814 817 821 830 835 836 839 851 850 856 859
678 688 700 711 721 726 729 733 739 744 753 761 768 776 780 785 789 793 795 799 805 809 815 818 825 830 834 832 834 836 845 855
670 680 692 703 715 723 725 729 734 740 748 757 766 772 777 781 787 787 791 797 800 806 813 816 822 825 826 828 832 834 836 840
664 674 684 695 705 716 722 726 727 734 741 750 758 768 772 778 781 783 787 792 796 801 807 812 817 820 823 825 827 829 831 834
676 665 677 686 695 706 716 722 723 725 733 741 748 759 765 767 774 778 782 787 792 797 801 807 811 814 818 820 823 825 828 830
693 685 667 672 682 692 706 716 719 720 725 733 740 747 754 760 767 770 776 782 788 793 797 801 805 809 813 816 819 822 824 825